Weather History for Monticello, NY

Change the Weather History Date:

Thursday, January 10, 2013

  Actual Average Record
Temperature  
Mean Temperature 34 °F -  
Max Temperature 39 °F 28 °F 42 °F (2002)
Min Temperature 26 °F 15 °F -9 °F (2004)
Degree Days  
Heating Degree Days 32    
Moisture  
Dew Point 20 °F    
Average Humidity 55    
Maximum Humidity 74    
Minimum Humidity 45    
Precipitation  
Precipitation 0.00 in - - ()
Sea Level Pressure  
Sea Level Pressure 30.41 in    
Wind  
Wind Speed 15 mph (NW)    
Max Wind Speed 28 mph    
Max Gust Speed 39 mph    
Visibility 10 miles    
Events      
Averages and records for this station are not official NWS values.
T = Trace of Precipitation, MM = Missing Value Source: NWS Daily Summary

Daily Weather History Graph

Daily Weather History Graph

Search for Another Location

Airport:

Trip Planner

Search our weather history database for the weather conditions in past years. The results will help you decide how hot, cold, wet, or windy it might be!

Date:

Astronomy

Jan. 10, 2013 Rise Set
Actual Time 7:25 AM EST 4:48 PM EST
Civil Twilight 6:54 AM EST 5:19 PM EST
Nautical Twilight 6:20 AM EST 5:53 PM EST
Astronomical Twilight 5:46 AM EST 6:27 PM EST
Moon 6:02 AM EST (1/10) 3:53 PM EST (1/10)
Length of Visible Light 10h 24m
Length of Day
9h 22m
Waning Crescent, 2% of the Moon is Illuminated
Jan 10
Waning Crescent
Jan 11
New
Jan 18
First Quarter
Jan 26
Full
Feb 3
Last Quarter

Hourly Weather History & Observations

Time (EST) Temp. Windchill Dew Point Humidity Pressure Visibility Wind Dir Wind Speed Gust Speed Precip Events Conditions
12:15 AM 37.4 °F 28.5 °F 21.2 °F 52% 30.18 in 10.0 mi WNW 15.0 mph 24.2 mph N/A   Scattered Clouds
12:35 AM 37.4 °F 26.9 °F 23.0 °F 56% 30.19 in 10.0 mi WNW 20.7 mph 28.8 mph N/A   Mostly Cloudy
12:55 AM 37.4 °F 26.6 °F 23.0 °F 56% 30.21 in 10.0 mi NW 21.9 mph 34.5 mph N/A   Overcast
1:15 AM 37.4 °F 25.6 °F 21.2 °F 52% 30.22 in 10.0 mi WNW 26.5 mph 38.0 mph N/A   Overcast
1:35 AM 37.4 °F 25.4 °F 21.2 °F 52% 30.23 in 10.0 mi WNW 27.6 mph 39.1 mph N/A   Overcast
1:55 AM 37.4 °F 26.9 °F 19.4 °F 48% 30.26 in 10.0 mi NW 20.7 mph 27.6 mph N/A   Mostly Cloudy
2:15 AM 35.6 °F 23.7 °F 19.4 °F 52% 30.27 in 10.0 mi WNW 24.2 mph 35.7 mph N/A   Mostly Cloudy
2:35 AM 35.6 °F 25.2 °F 21.2 °F 56% 30.28 in 10.0 mi NW 18.4 mph 31.1 mph N/A   Overcast
2:55 AM 35.6 °F 24.2 °F 21.2 °F 56% 30.28 in 10.0 mi NW 21.9 mph 28.8 mph N/A   Mostly Cloudy
3:15 AM 35.6 °F 24.8 °F 21.2 °F 56% 30.29 in 10.0 mi NW 19.6 mph 29.9 mph N/A   Overcast
3:35 AM 35.6 °F 25.9 °F 21.2 °F 56% 30.30 in 10.0 mi NW 16.1 mph 24.2 mph N/A   Overcast
3:55 AM 35.6 °F 26.2 °F 21.2 °F 56% 30.30 in 10.0 mi WNW 15.0 mph 21.9 mph N/A   Overcast
4:15 AM 35.6 °F 25.5 °F 21.2 °F 56% 30.30 in 10.0 mi WNW 17.3 mph 24.2 mph N/A   Overcast
4:35 AM 35.6 °F 24.5 °F 21.2 °F 56% 30.30 in 10.0 mi NW 20.7 mph 27.6 mph N/A   Mostly Cloudy
4:55 AM 35.6 °F 24.0 °F 21.2 °F 56% 30.30 in 10.0 mi NW 23.0 mph 36.8 mph N/A   Partly Cloudy
5:15 AM 33.8 °F 21.6 °F 21.2 °F 60% 30.30 in 10.0 mi NW 23.0 mph 33.4 mph N/A   Clear
5:35 AM 33.8 °F 21.9 °F 19.4 °F 56% 30.31 in 10.0 mi NW 21.9 mph 31.1 mph N/A   Clear
5:55 AM 33.8 °F 23.5 °F 19.4 °F 56% 30.32 in 10.0 mi NW 16.1 mph 28.8 mph N/A   Clear
6:15 AM 33.8 °F 22.8 °F 21.2 °F 60% 30.33 in 10.0 mi NW 18.4 mph 24.2 mph N/A   Clear
6:35 AM 33.8 °F 24.3 °F 19.4 °F 56% 30.35 in 10.0 mi WNW 13.8 mph 25.3 mph N/A   Clear
6:55 AM 33.8 °F 23.5 °F 21.2 °F 60% 30.37 in 10.0 mi WNW 16.1 mph 21.9 mph N/A   Partly Cloudy
7:35 AM 33.8 °F 23.9 °F 19.4 °F 56% 30.40 in 10.0 mi NW 15.0 mph 25.3 mph N/A   Mostly Cloudy
7:55 AM 33.8 °F 24.8 °F 19.4 °F 56% 30.42 in 10.0 mi NW 12.7 mph 26.5 mph N/A   Partly Cloudy
8:15 AM 33.8 °F 24.3 °F 19.4 °F 56% 30.43 in 10.0 mi NW 13.8 mph 20.7 mph N/A   Clear
8:55 AM 33.8 °F 22.8 °F 19.4 °F 56% 30.44 in 10.0 mi NNW 18.4 mph 25.3 mph N/A   Clear
9:35 AM 35.6 °F 27.5 °F 19.4 °F 52% 30.47 in 10.0 mi WNW 11.5 mph - N/A   Clear
9:55 AM 35.6 °F 28.0 °F 19.4 °F 52% 30.48 in 10.0 mi NW 10.4 mph 16.1 mph N/A   Clear
10:15 AM 35.6 °F 25.9 °F 19.4 °F 52% 30.49 in 10.0 mi WNW 16.1 mph - N/A   Clear
10:35 AM 35.6 °F 24.5 °F 19.4 °F 52% 30.49 in 10.0 mi NW 20.7 mph 26.5 mph N/A   Clear
10:55 AM 35.6 °F 27.1 °F 19.4 °F 52% 30.49 in 10.0 mi WNW 12.7 mph 21.9 mph N/A   Clear
11:15 AM 37.4 °F 27.8 °F 19.4 °F 48% 30.48 in 10.0 mi NW 17.3 mph 21.9 mph N/A   Clear
11:35 AM 37.4 °F 28.2 °F 19.4 °F 48% 30.46 in 10.0 mi NW 16.1 mph 24.2 mph N/A   Clear
11:55 AM 37.4 °F 29.8 °F 19.4 °F 48% 30.45 in 10.0 mi NW 11.5 mph 21.9 mph N/A   Clear
12:15 PM 37.4 °F 29.3 °F 19.4 °F 48% 30.45 in 10.0 mi WNW 12.7 mph 21.9 mph N/A   Clear
12:35 PM 37.4 °F 29.3 °F 19.4 °F 48% 30.45 in 10.0 mi WNW 12.7 mph 20.7 mph N/A   Clear
12:55 PM 37.4 °F 28.9 °F 19.4 °F 48% 30.45 in 10.0 mi NW 13.8 mph - N/A   Clear
1:15 PM 37.4 °F 30.3 °F 19.4 °F 48% 30.45 in 10.0 mi NW 10.4 mph 18.4 mph N/A   Clear
1:35 PM 39.2 °F 32.0 °F 19.4 °F 45% 30.45 in 10.0 mi WNW 11.5 mph 17.3 mph N/A   Clear
1:55 PM 39.2 °F 32.5 °F 19.4 °F 45% 30.45 in 10.0 mi NW 10.4 mph 17.3 mph N/A   Clear
2:35 PM 39.2 °F 31.6 °F 21.2 °F 49% 30.46 in 10.0 mi NW 12.7 mph 17.3 mph N/A   Clear
2:55 PM 39.2 °F 31.6 °F 21.2 °F 49% 30.46 in 10.0 mi NW 12.7 mph - N/A   Clear
3:15 PM 39.2 °F 32.0 °F 21.2 °F 49% 30.47 in 10.0 mi NNW 11.5 mph - N/A   Clear
3:35 PM 39.2 °F 32.0 °F 21.2 °F 49% 30.47 in 10.0 mi NW 11.5 mph - N/A   Clear
3:55 PM 39.2 °F 34.2 °F 21.2 °F 49% 30.47 in 10.0 mi WNW 6.9 mph - N/A   Clear
4:15 PM 39.2 °F 34.2 °F 19.4 °F 45% 30.48 in 10.0 mi NW 6.9 mph - N/A   Clear
4:35 PM 37.4 °F 32.1 °F 19.4 °F 48% 30.47 in 10.0 mi NNW 6.9 mph - N/A   Clear
4:55 PM 37.4 °F 32.1 °F 21.2 °F 52% 30.47 in 10.0 mi NW 6.9 mph - N/A   Clear
5:15 PM 35.6 °F 29.9 °F 19.4 °F 52% 30.48 in 10.0 mi WNW 6.9 mph - N/A   Clear
5:35 PM 35.6 °F 31.7 °F 19.4 °F 52% 30.48 in 10.0 mi WNW 4.6 mph - N/A   Clear
5:55 PM 35.6 °F 30.7 °F 19.4 °F 52% 30.48 in 10.0 mi NW 5.8 mph - N/A   Clear
6:15 PM 33.8 °F - 19.4 °F 56% 30.49 in 10.0 mi Calm Calm - N/A   Clear
6:35 PM 33.8 °F - 19.4 °F 56% 30.50 in 10.0 mi Calm Calm - N/A   Clear
6:55 PM 32.0 °F - 19.4 °F 60% 30.50 in 10.0 mi Calm Calm - N/A   Clear
7:15 PM 32.0 °F 24.8 °F 21.2 °F 64% 30.50 in 10.0 mi WNW 8.1 mph - N/A   Clear
7:35 PM 32.0 °F 26.4 °F 21.2 °F 64% 30.51 in 10.0 mi WNW 5.8 mph - N/A   Clear
7:55 PM 30.2 °F 26.7 °F 21.2 °F 69% 30.51 in 10.0 mi WNW 3.5 mph - N/A   Clear
8:15 PM 30.2 °F 24.3 °F 19.4 °F 64% 30.51 in 10.0 mi NW 5.8 mph - N/A   Clear
8:35 PM 30.2 °F 25.4 °F 19.4 °F 64% 30.51 in 10.0 mi NW 4.6 mph - N/A   Clear
8:55 PM 30.2 °F 24.3 °F 19.4 °F 64% 30.51 in 10.0 mi NNW 5.8 mph - N/A   Clear
9:15 PM 30.2 °F 25.4 °F 19.4 °F 64% 30.50 in 10.0 mi NW 4.6 mph - N/A   Clear
9:55 PM 30.2 °F 24.3 °F 19.4 °F 64% 30.49 in 10.0 mi NW 5.8 mph - N/A   Clear
10:15 PM 30.2 °F - 19.4 °F 64% 30.49 in 10.0 mi Calm Calm - N/A   Clear
10:35 PM 28.4 °F - 19.4 °F 69% 30.49 in 10.0 mi Calm Calm - N/A   Clear
10:55 PM 28.4 °F - 19.4 °F 69% 30.49 in 10.0 mi Calm Calm - N/A   Clear
11:15 PM 28.4 °F - 19.4 °F 69% 30.49 in 10.0 mi Calm Calm - N/A   Clear
11:35 PM 26.6 °F - 19.4 °F 74% 30.49 in 10.0 mi Calm Calm - N/A   Clear